This demonstration page uses our WeatherBlox Daily Observations layout. Learn more.

Left ArrowRight Arrow

34.74481, -87.66753

Hourly Observations for February 1, 2021

Temp ( °F °C ) Dew Point ( °F °C ) Humidity (%) Winds ( mph kmh ) Pressure ( in mb ) Visibility ( mi km ) Precip ( " mm )
12:53 am 00:53 Cloudy 40 4.4 27 -2.8 60 60 NNW 13 20 30.04 1017 10 16 0.00 0.00
1:53 am 01:53 Cloudy 39 3.9 27 -2.8 62 62 NW 15 24 30.05 1018 10 16 0.00 0.00
2:53 am 02:53 Cloudy 39 3.9 27 -2.8 62 62 NW 17 28 30.06 1018 10 16 0.00 0.00
3:53 am 03:53 Cloudy 38 3.3 27 -2.8 65 65 NW 18 30 30.07 1018 10 16 0.00 0.00
4:53 am 04:53 Cloudy 38 3.3 27 -2.8 65 65 NNW 14 22 30.09 1019 10 16 0.00 0.00
5:53 am 05:53 Cloudy 37 2.8 27 -2.8 67 67 NNW 12 19 30.10 1019 10 16 0.00 0.00
6:53 am 06:53 Cloudy 37 2.8 27 -2.8 67 67 NNW 12 19 30.12 1020 10 16 0.00 0.00
7:53 am 07:53 Cloudy 37 2.8 27 -2.8 67 67 NNW 10 17 30.13 1020 10 16 0.00 0.00
8:53 am 08:53 Cloudy 38 3.3 27 -2.8 65 65 NW 14 22 30.15 1021 10 16 0.00 0.00
9:53 am 09:53 Cloudy 38 3.3 27 -2.8 65 65 NW 15 24 30.16 1022 10 16 0.00 0.00
10:53 am 10:53 Cloudy 38 3.3 27 -2.8 65 65 NNW 13 20 30.17 1022 10 16 0.00 0.00
11:53 am 11:53 Cloudy 38 3.3 27 -2.8 65 65 NNW 10 17 30.15 1021 10 16 0.00 0.00
12:53 pm 12:53 Cloudy 39 3.9 27 -2.8 62 62 NW 14 22 30.13 1020 10 16 0.00 0.00
1:53 pm 13:53 Cloudy 39 3.9 26 -3.3 60 60 NNW 12 19 30.13 1020 10 16 0.00 0.00
2:53 pm 14:53 Cloudy 40 4.4 27 -2.8 60 60 NW 14 22 30.13 1020 10 16 0.00 0.00
3:16 pm 15:16 Cloudy 40 4.4 26 -3.3 58 58 NW 9 15 30.15 1021 10 16 0.00 0.00
3:53 pm 15:53 Cloudy 40 4.4 26 -3.3 58 58 NW 12 19 30.14 1021 10 16 0.00 0.00
4:53 pm 16:53 Mostly Cloudy 40 4.4 25 -3.9 55 55 NW 14 22 30.14 1021 10 16 0.00 0.00
5:53 pm 17:53 Mostly Cloudy 39 3.9 24 -4.4 55 55 NW 14 22 30.16 1022 10 16 0.00 0.00
6:53 pm 18:53 Cloudy 38 3.3 24 -4.4 57 57 NW 12 19 30.19 1022 10 16 0.00 0.00
7:53 pm 19:53 Mostly Cloudy 38 3.3 24 -4.4 57 57 NW 9 15 30.19 1022 10 16 0.00 0.00
8:53 pm 20:53 Cloudy 38 3.3 23 -5 55 55 NW 9 15 30.20 1023 10 16 0.00 0.00
9:53 pm 21:53 Partly Cloudy 37 2.8 23 -5 57 57 NNW 8 13 30.20 1023 10 16 0.00 0.00
10:53 pm 22:53 Clear 36 2.2 22 -5.6 57 57 NNW 12 19 30.21 1023 10 16 0.00 0.00
11:53 pm 23:53 Clear 35 1.7 21 -6.1 57 57 NNW 10 17 30.20 1023 10 16 0.00 0.00

Powered by AerisWeather